Location: Melbourne
(37.8170°S, 144.9670°E)
Time: 08:10:57
(UTC+11:00)

Vanguard 1 Rocket - Visible Passes

Search period start: 26 October 2014 00:00
Search period end: 05 November 2014 00:00
Orbit: 654 x 4226 km, 34.3° (Epoch: 21 October)

Date Brightness Start Highest point End Pass type
(mag) Time Alt. Az. Time Alt. Az. Time Alt. Az.
26 Oct 10.7 19:48:28 10° W 20:02:22 47° NNW 20:24:52 10° NE visible
26 Oct 11.5 22:19:38 10° W 22:32:31 20° NW 22:47:58 10° N visible
27 Oct 11.2 21:05:13 10° W 21:19:13 29° NW 21:38:32 10° NNE visible
28 Oct 10.9 19:52:54 10° W 20:06:01 39° NNW 20:26:46 10° NNE visible
28 Oct 11.7 22:27:25 10° WNW 22:36:02 14° NW 22:45:49 10° NNW visible
29 Oct 11.4 21:10:40 10° W 21:22:48 22° NW 21:38:53 10° N visible
30 Oct 11.1 19:57:37 10° W 20:09:43 31° NNW 20:28:10 10° NNE visible
31 Oct 11.6 21:17:23 10° WNW 21:26:32 16° NW 21:37:47 10° N visible
01 Nov 11.3 20:02:50 10° W 20:13:31 23° NNW 20:28:52 10° N visible
03 Nov 11.5 20:09:01 10° WNW 20:17:24 17° NW 20:28:25 10° N visible
